Regional Weather Roundup
Issued by NWS Cleveland, OH

Home | Current Version | Previous Version | Graphics & Text | Print | Product List | Glossary On
Versions: 1 2 3 4 5 6 7 8 9 10 11 12 13 14 15 16 17 18 19 20 21 22 23 24 25 26 27 28 29 30 31 32 33 34 35 36 37 38 39 40 41 42 43 44 45 46 47 48 49 50
000
ASUS41 KCLE 180502
RWRCLE
OHIO REGIONAL WEATHER ROUNDUP
NATIONAL WEATHER SERVICE CLEVELAND, OH
1200 AM EST THU JAN 18 2018

NOTE: "FAIR" INDICATES FEW OR NO CLOUDS BELOW 12,000 FEET WITH NO
SIGNIFICANT WEATHER AND/OR OBSTRUCTIONS TO VISIBILITY.

OHZ001>008-015>018-024>027-034-035-043-044-180600-
   NORTHWEST OHIO

CITY           SKY/WX    TMP DP  RH WIND       PRES   REMARKS
DEFIANCE       FAIR      13   5  70 SW16      30.27F WCI  -3
FINDLAY        FAIR      15   6  67 SW16      30.27F WCI  -1
TOLEDO EXPRESS FAIR      16   8  71 SW15G26   30.22F WCI   1
TOLEDO EXEC    FAIR      16   8  71 SW20      30.24F WCI  -1
LIMA           FAIR      13   7  77 SW16      30.30F WCI  -3
$$

OHZ009>014-019>023-028>033-038-089-180600-
   NORTHEAST OHIO

CITY           SKY/WX    TMP DP  RH WIND       PRES   REMARKS
CLE-HOPKINS    FAIR      15   7  70 S14       30.27F WCI   0
CLE-LAKEFRONT  FAIR      16   6  65 S18       30.25F WCI   0
CUY CO. ARPT   NOT AVBL
LORAIN-ELYRIA  FAIR      14   4  64 MISG      30.25F
ASHTABULA      FAIR      10   5  80 S13       30.22F WCI  -5
AKRON-CANTON   FAIR       6   1  80 SW10      30.27F WCI  -9
WOOSTER        FAIR       9   5  84 SW12      30.27F WCI  -6
MANSFIELD      FAIR      15   7  70 SW14G26   30.25F WCI   0
YOUNGSTOWN     FAIR       8   4  83 SW10      30.24F WCI  -6
$$

OHZ042-051>053-060>062-070>072-077>081-180600-
  SOUTHWEST OHIO

CITY           SKY/WX    TMP DP  RH WIND       PRES   REMARKS
CINC-COVINGTON FAIR      13   8  81 SW8       30.42F WCI   2
CINC-LUNKEN    FAIR      15   9  76 SW9       30.48S WCI   3
HAMILTON       FAIR      15   9  76 SW7       30.44F WCI   5
DAYTON         FAIR      13   9  84 SW15      30.36F WCI  -3
WRIGHT-PAT AFB MOCLDY    15   6  69 SW12      30.37F WCI   1
DAYTON GENERAL FAIR      15   8  73 SW13      30.38F WCI   1
WILMINGTON     FAIR       8   6  92 SW12      30.37F WCI  -7
$$

OHZ036-037-039>041-045>050-054>059-063>069-073>076-082>088-180600-
  CENTRAL AND SOUTHEAST OHIO

CITY           SKY/WX    TMP DP  RH WIND       PRES   REMARKS
COLUMBUS       FAIR       8   4  83 S7        30.38F WCI  -3
OSU AIRPORT    FAIR      12   7  80 SW10      30.36F WCI  -1
BOLTON FIELD   FAIR       9   5  84 SW9       30.38F WCI  -4
RICKENBACK AFB FAIR       7   4  89 S9        30.39F WCI  -7
NEWARK         FAIR       4   0  83 S6        30.36F WCI  -7
MARION         FAIR      11   6  81 SW12      30.31F WCI  -3
LANCASTER      FAIR      10   5  80 SW8       30.38F WCI  -2
ZANESVILLE     FAIR       6   2  83 SW8       30.37F WCI  -7
NEW PHILLY     NOT AVBL
$$




USA.gov is the U.S. government's official web portal to all federal, state and local government web resources and services.